Location: Falniów
(50.3639°N, 19.9642°E)
Time: 12:47:51
(UTC+00:00)

Cosmos 2082 Rocket - Pass Details

Date: 21 April 2026
Orbit: 831 x 853 km, 71.0° (Epoch: 19 May)

Event Time Altitude Azimuth Distance (km) Brightness Sun altitude
Exits shadow 23:17:49 43° 110° (ESE) 1,183 2.8 -26.9°
Maximum altitude 23:17:52 43° 109° (ESE) 1,183 2.8 -26.9°
Drops below altitude 10° 23:23:14 10° 40° (NE) 2,493 5.4 -26.8°
Sets 23:25:48 0° 34° (NNE) 3,433 6.5 -26.7°
